Regional Weather Roundup
Issued by NWS

Home | Current Version | Previous Version | Graphics & Text | Print | Product List | Glossary On
Versions: 1 2 3 4 5 6 7 8 9 10 11 12 13 14 15 16 17 18 19 20 21 22 23 24 25 26 27 28 29 30 31 32 33 34 35 36 37 38 39 40 41 42 43 44 45 46 47 48 49 50
000
ASUS43 KLSX 020159
RWRMO

WEATHER SUMMARY FOR MISSOURI
NATIONAL WEATHER SERVICE SPRINGFIELD MO
800 PM CST SUN FEB 01 2015

NOTE: "FAIR" INDICATES FEW OR NO CLOUDS BELOW 12,000 FEET WITH NO
       SIGNIFICANT WEATHER AND/OR OBSTRUCTIONS TO VISIBILITY.
       CURRENT SKY AND/OR WEATHER CONDITIONS ARE NOT AVAILABLE FOR
       CHILLICOTHE AND FARMINGTON.

MOZ001>031-035>038-043-044-053-054-020300-
...NORTHERN AND WESTERN MISSOURI...

CITY           SKY/WX    TMP DP  RH WIND       PRES   REMARKS
KANSAS CTY INT LGT SNOW  17  13  84 N18G26    30.14R FOG     WCI   1
KANSAS C DTWN  FLURRIES  21  13  71 N15G30    30.15R WCI   8
LEE`S SUMMIT   FLURRIES  19  13  77 NW20G30   30.12R WCI   3
ST JOSEPH      LGT SNOW  16  12  84 N20       30.19R FOG     WCI  -1
CHILLICOTHE      N/A     20  13  74 N15G28    30.11R WCI   6
KIRKSVILLE     LGT SNOW  17  14  88 N20G29    30.03R FOG     WCI   1

$$
MOZ066>068-077>081-088>096-101>105-020300-
...SOUTHWEST MISSOURI...

CITY           SKY/WX    TMP DP  RH WIND       PRES   REMARKS
SPRINGFIELD    CLOUDY    23  17  78 NW16G25   30.03R WCI  10
JOPLIN         FLURRIES  20  12  71 NW23G31   30.15R WCI   3

$$
MOZ032>034-039>042-045>050-055>058-069>072-020300-
...CENTRAL MISSOURI...

CITY           SKY/WX    TMP DP  RH WIND       PRES   REMARKS
COLUMBIA       LGT SNOW  24  22  91 NW22      29.95R FOG     WCI   9
JEFFERSON CITY LGT SNOW  27  22  81 N18G25    29.98R WCI  14
ROLLA          CLOUDY    30  26  85 NW18G32   29.87R WCI  18
SEDALIA        LGT SNOW  23  17  78 NW24      30.05R WCI   7
OSAGE BEACH    CLOUDY    27  19  74 NW10G24   29.97R WCI  17

$$
MOZ051-052-059>065-020300-
...EAST CENTRAL MISSOURI...

CITY           SKY/WX    TMP DP  RH WIND       PRES   REMARKS
ST LOUIS INTL  LGT SNOW  32  27  81 NW17G29   29.82R WCI  21
SPIRIT OF STL  CLOUDY    30  25  81 NW17      29.85R WCI  18
ST CHARLES     CLOUDY    30  26  85 N21G30    29.83R WCI  17

$$
MOZ072>076-082>087-097>100-106>115-020300-
...SOUTH CENTRAL AND SOUTHEAST MISSOURI...

CITY           SKY/WX    TMP DP  RH WIND       PRES   REMARKS
CAPE GIRARDEAU CLOUDY    40  33  76 NW28G35   29.77R WCI  29
FARMINGTON     CLOUDY    36  30  80 NW17G25   29.81R WCI  25
POPLAR BLUFF   CLOUDY    41  30  65 W14       29.82R
WEST PLAINS    CLOUDY    29  24  82 NW10G22   29.92R WCI  20

$$



USA.gov is the U.S. government's official web portal to all federal, state and local government web resources and services.